Weather History for KPRN - October, 2011

Change the Weather History Date:

Wednesday, October 26, 2011

  Actual Average Record
Temperature  
Mean Temperature 62 °F -  
Max Temperature 79 °F 75 °F 87 °F (1991)
Min Temperature 44 °F 49 °F 34 °F (1968)
Degree Days  
Heating Degree Days 4    
Growing Degree Days 12 (Base 50)    
Moisture  
Dew Point 50 °F    
Average Humidity 68    
Maximum Humidity 90    
Minimum Humidity 37    
Precipitation  
Precipitation 0.00 in - - ()
Sea Level Pressure  
Sea Level Pressure 30.05 in    
Wind  
Wind Speed 2 mph (South)    
Max Wind Speed 10 mph    
Max Gust Speed 20 mph    
Visibility 10 miles    
Events Hail    
Averages and records for this station are not official NWS values.
T = Trace of Precipitation, MM = Missing Value Source: NWS Daily Summary

Daily Weather History Graph

Daily Weather History Graph

Search for Another Location

Airport or City:

Trip Planner

Search our weather history database for the weather conditions in past years. The results will help you decide how hot, cold, wet, or windy it might be!

Date:

Astronomy

Oct. 26, 2011 Rise Set
Actual Time 6:57 AM CDT 6:02 PM CDT
Civil Twilight 6:32 AM CDT 6:27 PM CDT
Nautical Twilight 6:04 AM CDT 6:56 PM CDT
Astronomical Twilight 5:35 AM CDT 7:24 PM CDT
Moon 6:42 AM CDT (10/26) 5:49 PM CDT (10/26)
Length of Visible Light 11h 54m
Length of Day
11h 04m
Waning Crescent, 0% of the Moon is Illuminated
Oct 26
Waning Crescent
Oct 26
New
Nov 2
First Quarter
Nov 10
Full
Nov 18
Last Quarter

Hourly Weather History & Observations

Time (CDT) Temp. Windchill Dew Point Humidity Pressure Visibility Wind Dir Wind Speed Gust Speed Precip Events Conditions
12:56 AM 50.0 °F - 45.0 °F 83% 30.12 in 10.0 mi Calm Calm - N/A   Clear
1:56 AM 48.9 °F - 45.0 °F 86% 30.11 in 10.0 mi Calm Calm - N/A   Clear
2:56 AM 46.0 °F - 43.0 °F 89% 30.09 in 10.0 mi Calm Calm - N/A   Clear
3:56 AM 46.0 °F - 43.0 °F 89% 30.09 in 10.0 mi Calm Calm - N/A   Clear
4:56 AM 45.0 °F 43.5 °F 42.1 °F 90% 30.09 in 10.0 mi NNW 3.5 mph - N/A   Clear
5:56 AM 45.0 °F - 42.1 °F 90% 30.11 in 10.0 mi Calm Calm - N/A   Clear
6:56 AM 44.1 °F - 41.0 °F 89% 30.12 in 10.0 mi Calm Calm - N/A   Clear
7:56 AM 48.9 °F - 44.1 °F 83% 30.12 in 10.0 mi Calm Calm - N/A   Clear
8:56 AM 62.1 °F - 53.1 °F 72% 30.13 in 10.0 mi Calm Calm - N/A   Clear
9:30 AM - - - N/A% - - North - - N/A Hail Hail
9:56 AM 70.0 °F - 54.0 °F 57% 30.13 in 10.0 mi ESE 3.5 mph - N/A   Unknown
10:56 AM 73.9 °F - 51.1 °F 45% 30.12 in 10.0 mi Variable 4.6 mph - N/A   Clear
11:56 AM 75.0 °F - 53.1 °F 46% 30.09 in 10.0 mi Variable 5.8 mph - N/A   Clear
12:56 PM 78.1 °F - 52.0 °F 40% 30.07 in 10.0 mi SSW 10.4 mph 19.6 mph N/A   Unknown
1:56 PM 78.1 °F - 50.0 °F 37% 30.03 in 10.0 mi South 8.1 mph - N/A   Clear
2:56 PM 79.0 °F - 52.0 °F 39% 30.01 in 10.0 mi South 5.8 mph - N/A   Clear
3:56 PM 78.1 °F - 53.1 °F 42% 29.99 in 10.0 mi South 5.8 mph - N/A   Clear
4:56 PM 77.0 °F - 52.0 °F 42% 29.98 in 10.0 mi South 6.9 mph - N/A   Clear
5:56 PM 73.0 °F - 53.1 °F 49% 29.98 in 10.0 mi South 3.5 mph - N/A   Clear
6:56 PM 66.9 °F - 54.0 °F 63% 29.98 in 10.0 mi Calm Calm - N/A   Clear
7:56 PM 62.1 °F - 55.0 °F 78% 29.98 in 10.0 mi Calm Calm - N/A   Clear
8:56 PM 60.1 °F - 54.0 °F 80% 29.98 in 10.0 mi Calm Calm - N/A   Clear
9:56 PM 59.0 °F - 53.1 °F 81% 29.98 in 10.0 mi Calm Calm - N/A   Clear
10:56 PM 57.0 °F - 52.0 °F 83% 29.99 in 10.0 mi Calm Calm - N/A   Clear
11:56 PM 55.9 °F - 52.0 °F 87% 29.99 in 10.0 mi Calm Calm - N/A   Clear